TimeWET,TemperatureF,Dew PointF,Humidity,Sea Level PressureIn,VisibilityMPH,Wind Direction,Wind SpeedMPH,Gust SpeedMPH,PrecipitationIn,Events,Conditions,WindDirDegrees,DateUTC
8:30 AM,62.6,53.6,72,30.15,-9999.0,ESE,6.9,-,N/A,,Clear,110,2013-04-10 08:30:00
9:00 AM,66,54,56,30.12,6,East,6.9,,,,Clear,100,2013-04-10 09:00:00
9:00 AM,66.2,53.6,64,30.12,-9999.0,East,6.9,-,N/A,,Clear,100,2013-04-10 09:00:00
9:30 AM,68.0,53.6,60,30.15,-9999.0,East,5.8,-,N/A,,Clear,90,2013-04-10 09:30:00
10:00 AM,71.6,51.8,50,30.15,-9999.0,NE,5.8,-,N/A,,Clear,50,2013-04-10 10:00:00
11:00 AM,68.0,44.6,43,30.06,-9999.0,ENE,9.2,-,N/A,,Clear,60,2013-04-10 11:00:00
12:00 PM,78,50,26,30.05,6,ENE,6.9,,,,Clear,60,2013-04-10 12:00:00
12:00 PM,78.8,50.0,36,30.12,-9999.0,ENE,6.9,-,N/A,,Clear,60,2013-04-10 12:00:00
1:00 PM,80.6,50.0,34,30.09,-9999.0,ESE,5.8,-,N/A,,Clear,110,2013-04-10 13:00:00
2:00 PM,84.2,41.0,22,30.06,-9999.0,NE,6.9,-,N/A,,Clear,40,2013-04-10 14:00:00
2:30 PM,84.2,42.8,23,30.06,-9999.0,Variable,3.5,-,N/A,,Clear,0,2013-04-10 14:30:00
3:00 PM,86,47,16,29.97,6,NNE,5.8,,,,Clear,20,2013-04-10 15:00:00
3:00 PM,84.2,46.4,27,30.06,-9999.0,NNW,5.8,-,N/A,,Clear,330,2013-04-10 15:00:00
3:30 PM,86.0,46.4,25,30.06,-9999.0,Variable,3.5,-,N/A,,Clear,0,2013-04-10 15:30:00
4:00 PM,86.0,46.4,25,30.06,-9999.0,NNW,6.9,-,N/A,,Clear,340,2013-04-10 16:00:00
4:30 PM,86.0,44.6,23,30.06,6.2,Variable,3.5,-,N/A,,Partly Cloudy,0,2013-04-10 16:30:00
5:00 PM,86.0,44.6,23,30.06,6.2,NNW,4.6,-,N/A,,Partly Cloudy,340,2013-04-10 17:00:00
5:30 PM,84.2,42.8,23,30.06,6.2,North,6.9,-,N/A,,Partly Cloudy,350,2013-04-10 17:30:00
6:00 PM,84,43,14,29.98,6,NNW,5.8,,,,Scattered Clouds,340,2013-04-10 18:00:00
6:00 PM,84.2,42.8,23,30.06,6.2,North,5.8,-,N/A,,Partly Cloudy,360,2013-04-10 18:00:00
6:30 PM,82.4,42.8,25,30.06,6.2,NNE,6.9,-,N/A,,Partly Cloudy,30,2013-04-10 18:30:00
7:00 PM,80.6,44.6,28,30.09,6.2,North,9.2,-,N/A,,Partly Cloudy,350,2013-04-10 19:00:00
7:30 PM,78.8,50.0,36,30.09,6.2,NNW,10.4,-,N/A,,Partly Cloudy,340,2013-04-10 19:30:00
8:00 PM,77.0,51.8,41,30.09,6.2,North,9.2,-,N/A,,Partly Cloudy,360,2013-04-10 20:00:00
8:30 PM,75.2,51.8,44,30.12,-9999.0,North,8.1,-,N/A,,Clear,360,2013-04-10 20:30:00
9:00 PM,73,53,39,30.08,6,NNE,9.2,,,,,20,2013-04-10 21:00:00
9:00 PM,73.4,53.6,50,30.12,-9999.0,NNE,10.4,-,N/A,,Clear,20,2013-04-10 21:00:00
9:30 PM,71.6,57.2,60,30.15,-9999.0,North,4.6,-,N/A,,Clear,10,2013-04-10 21:30:00
10:00 PM,69.8,59.0,68,30.15,-9999.0,ENE,4.6,-,N/A,,Clear,70,2013-04-10 22:00:00
10:30 PM,69.8,59.0,68,30.15,-9999.0,East,3.5,-,N/A,,Clear,80,2013-04-10 22:30:00
11:00 PM,68.0,59.0,73,30.12,-9999.0,ENE,1.2,-,N/A,,Clear,60,2013-04-10 23:00:00
11:30 PM,68.0,57.2,68,30.12,-9999.0,Variable,1.2,-,N/A,,Clear,0,2013-04-10 23:30:00